Location: College Park
(38.9810°N, 76.9370°W)
Time: 05:23:03

N. Korean satellite - Pass Details

Date: 11 March 2018
Orbit: 460 x 512 km, 97.2° (Epoch: 22 March)

Event Time Altitude Azimuth Distance (km) Brightness Sun altitude
Rises 06:43:25 0° 33° (NNE) 2,631 10.8 -9.0°
Reaches altitude 10° 06:46:25 10° 60° (ENE) 1,739 10.5 -8.4°
Maximum altitude 06:48:24 14° 92° (E) 1,505 10.6 -8.0°
Drops below altitude 10° 06:50:23 10° 124° (SE) 1,728 10.3 -7.6°
Sets 06:53:20 0° 151° (SSE) 2,601 10.7 -7.0°
